{"data":{"norad_id":49390,"epoch":"2026-05-25T05:03:18.491616Z","epoch_age_seconds":56594,"freshness":"FRESH","line1":"1 49390U 21101A   26145.21063069  .00008355  00000+0  31591-3 0  9997","line2":"2 49390  34.9905  61.1936 0005562 182.5412 177.5276 15.26214804253361","mean_motion":15.26214804,"eccentricity":0.0005562,"inclination_deg":34.9905,"raan_deg":61.1936,"arg_perigee_deg":182.5412,"mean_anomaly_deg":177.5276,"bstar":0.00031591,"rev_number":25336,"period_min":94.351070126299,"perigee_km":483.32156377581,"apogee_km":490.95849794494,"semimajor_km":6865.2770308604,"source":"CELESTRAK","updated_at":"2026-05-25T13:37:57.192191Z"}}